Location: Newark
(52.3500°N, 175.9667°E)
Time: 21:11:37
(UTC+00:00)

Altair - Pass Details

Date: 30 April 2021
Orbit: 1501 x 1683 km, 47.2° (Epoch: 05 May)

Event Time Altitude Azimuth Distance (km) Brightness Sun altitude
Rises 22:53:23 0° 284° (WNW) 4,794 9.8 49.5°
Reaches altitude 10° 22:58:34 10° 262° (W) 3,764 9.5 49.9°
Maximum altitude 23:02:45 14° 235° (SW) 3,429 9.6 50.2°
Drops below altitude 10° 23:06:54 10° 208° (SSW) 3,697 10.0 50.5°
Sets 23:11:57 0° 185° (S) 4,647 10.5 50.8°
